Flag for Germany Weather past 2 weeks in Hamburg, Hamburg, Germany

Now
59 °F

Broken clouds.


Feels Like: 57 °F
Forecast: 51 / 69 °F
Wind: 9 mph from Southwest

Location: Hamburg-Fuhlsbuettel

Current Time: Aug 28, 2015 at 9:45:02 AM

Latest Report: Aug 28, 2015 at 9:20 AM


Visibility: 5 mi

Pressure: 29.95 "Hg

Humidity: 88%

Dew point: 55 °F

Location of HamburgLocation

Historic Weather in Hamburg — Graph

°F

Hamburg temperature yesterday

Maximum temperature yesterday: 70 °F (at 12:50 AM)
Minimum temperature yesterday: 57 °F (at 7:20 PM)
Average temperature yesterday: 64 °F

Past Weeks' High & Low Weather Summary

 TemperatureHumidityPressure
High84 °F (Aug 14, 5:20 PM)100% (Aug 15, 7:20 AM)30.30 "Hg (Aug 15, 7:20 AM)
Low52 °F (Aug 21, 4:50 AM)30% (Aug 22, 12:50 PM)29.59 "Hg (Aug 24, 7:20 PM)
Average66 °F78%29.93 "Hg
* Reported Aug 13 8:20 AM — Aug 28 8:20 AM, Hamburg, Weather by CustomWeather, © 2015

Note: Actual official high and low records may vary slightly from our data, if they occured in-between our weather recording intervals... More about our weather records

Advertising

Hamburg weather history for previous 24 hours

 ConditionsComfort  
Time TempWeatherWind HumidityBarometerVisibility
8:20 AM
Fri, Aug 28
59 °FBroken clouds.9 mph88%29.95 "Hg5 mi
7:50 AM57 °FBroken clouds.7 mph94%29.92 "Hg5 mi
7:20 AM57 °FPartly cloudy.6 mph94%29.92 "Hg6 mi
6:50 AM57 °FPartly cloudy.7 mph94%29.92 "Hg6 mi
6:20 AM57 °FPassing clouds.7 mph94%29.92 "Hg4 mi
5:50 AM57 °FPassing clouds.8 mph94%29.89 "Hg4 mi
5:20 AM57 °FPassing clouds.8 mph94%29.89 "Hg6 mi
4:50 AM57 °FPassing clouds.6 mph94%29.89 "HgN/A
4:20 AM55 °FPassing clouds.7 mph100%29.86 "HgN/A
3:50 AM57 °FPassing clouds.8 mph94%29.86 "HgN/A
3:20 AM57 °FPartly cloudy.9 mph94%29.86 "HgN/A
2:50 AM57 °FPassing clouds.6 mph94%29.86 "HgN/A
2:20 AM57 °FLight rain. Clear.7 mph88%29.83 "HgN/A
1:50 AM57 °FLight rain. Clear.8 mph94%29.83 "HgN/A
1:20 AM57 °FLight rain. Passing clouds.8 mph94%29.86 "HgN/A
12:50 AM57 °FLight rain. Passing clouds.9 mph94%29.83 "HgN/A
12:20 AM57 °FLight rain. Passing clouds.9 mph94%29.83 "HgN/A
11:50 PM
Thu, Aug 27
57 °FLight rain. Passing clouds.9 mph94%29.86 "HgN/A
11:20 PM57 °FLight rain. Passing clouds.7 mph94%29.83 "HgN/A
10:50 PM57 °FLight rain. Passing clouds.6 mph94%29.83 "HgN/A
10:20 PM57 °FLight rain. Passing clouds.6 mph94%29.83 "HgN/A
9:50 PM57 °FLight rain. Passing clouds.7 mph94%29.83 "HgN/A
9:20 PM57 °FLight rain. Partly sunny.8 mph94%29.83 "HgN/A
8:50 PM57 °FLight rain. Partly sunny.8 mph94%29.83 "HgN/A
8:20 PM57 °FLight rain. Partly sunny.3 mph94%29.83 "HgN/A
7:50 PM57 °FLight rain. Partly sunny.5 mph94%29.83 "HgN/A
7:20 PM57 °FLight rain. Partly sunny.8 mph94%29.83 "HgN/A
6:50 PM59 °FLight rain. Broken clouds.9 mph94%29.83 "HgN/A
6:20 PM59 °FLight rain. Broken clouds.6 mph94%29.83 "HgN/A
5:50 PM61 °FLight rain. Broken clouds.6 mph94%29.83 "HgN/A
5:20 PM63 °FLight rain. Broken clouds.5 mph88%29.83 "HgN/A
4:50 PM61 °FLight rain. Broken clouds.7 mph94%29.83 "HgN/A
4:20 PM63 °FLight rain. Broken clouds.9 mph83%29.83 "HgN/A
3:50 PM63 °FLight rain. Broken clouds.8 mph83%29.83 "HgN/A
3:20 PM64 °FLight rain. Broken clouds.15 mph73%29.83 "HgN/A
2:50 PM66 °FLight rain. Broken clouds.12 mph68%29.80 "HgN/A
2:20 PM68 °FLight rain. Partly sunny.15 mph64%29.80 "HgN/A
1:50 PM68 °FPartly sunny.8 mph69%29.80 "HgN/A
1:20 PM68 °FBroken clouds.15 mph64%29.80 "HgN/A
12:50 PM68 °FBroken clouds.16 mph69%29.80 "HgN/A
12:20 PM68 °FBroken clouds.17 mph78%29.80 "HgN/A
11:50 AM68 °FPartly sunny.15 mph78%29.80 "HgN/A
11:20 AM68 °FPartly sunny.16 mph78%29.80 "HgN/A
10:50 AM68 °FBroken clouds.12 mph83%29.77 "HgN/A
10:20 AM68 °FLight rain. Partly sunny.14 mph83%29.77 "HgN/A
9:50 AM66 °FLight rain. Clear.12 mph88%29.77 "HgN/A
9:20 AM66 °FLight rain. Clear.13 mph88%29.77 "HgN/A
Weather by CustomWeather, © 2015

See weather overviewHow to use our weather pages